Regional Weather Roundup
Issued by NWS Memphis, TN

Home | Current Version | Previous Version | Text Only | Print | Product List | Glossary On
Versions: 1 2 3 4 5 6 7 8 9 10 11 12 13 14 15 16 17 18 19 20 21 22 23 24 25 26 27 28 29 30 31 32 33 34 35 36 37 38 39 40 41 42 43 44 45 46 47 48 49 50
000
ASUS44 KMEG 230710
RWRMEG
MEMPHIS CWA HOURLY WEATHER ROUNDUP
NATIONAL WEATHER SERVICE MEMPHIS TN
200 AM CDT TUE SEP 23 2014

...WEST TENNESSEE...

CITY           SKY/WX    TMP DP  RH WIND       PRES   REMARKS
MEMPHIS INTL   CLEAR     61  47  59 NE7       30.21S
NWS MEMPHIS      N/A     58 N/A N/A MISG        N/A
JACKSON        CLEAR     51  45  79 CALM      30.23R
LEXINGTON      CLEAR     48  45  87 NE3       30.21S
SAVANNAH       CLEAR     46  46 100 CALM      30.21S
DYERSBURG      CLEAR     54  39  58 NE3       30.25S
UNION CITY     CLEAR     48  46  93 CALM      30.24S
PARIS          CLEAR     46  43  87 CALM      30.25R
HUNTINGDON     CLEAR     50  45  83 NE3       30.25R


...EASTERN ARKANSAS...

CITY           SKY/WX    TMP DP  RH WIND       PRES   REMARKS
JONESBORO      CLEAR     56  49  77 NE5       30.24R
WEST MEMPHIS   CLEAR     55  50  83 NE5       30.21R
BATESVILLE     CLEAR     52  48  87 CALM      30.24S
NEWPORT        CLEAR     54  51  89 N8        30.25R
WALNUT RIDGE   CLEAR     54  48  82 NE5       30.24S
BLYTHEVILLE    CLEAR     52  49  89 NE3       30.23S
SEARCY         CLEAR     57  49  75 N5        30.23S
STUTTGART      CLEAR     55  48  76 NE5       30.22R
PINE BLUFF     CLEAR     59  50  72 NE5       30.20S
MONTICELLO     CLEAR     58  52  80 NE3       30.18S


...NORTH MISSISSIPPI...

CITY           SKY/WX    TMP DP  RH WIND       PRES   REMARKS
TUPELO         CLEAR     54  50  86 NE9       30.19R
OXFORD         CLEAR     54  50  87 NE5       30.21S
OLIVE BRANCH   CLEAR     54  54 100 NE5       30.22S
TUNICA         CLEAR     52  50  93 N6        30.21S
CLARKSDALE       N/A     55  52  88 N7        30.21R
CORINTH          N/A     55  48  76 CALM      30.20S
GRENADA        CLEAR     59  52  77 NE5       30.18F
GREENWOOD      CLEAR     53  51  93 N6        30.16F
COLUMBUS       CLEAR     56  51  85 N3        30.16S
STARKVILLE     FAIR      55  52  88 N3        30.16S
GOLDEN TRIANGL CLEAR     54  48  82 N6        30.16S


...SOUTHEAST MISSOURI...

CITY           SKY/WX    TMP DP  RH WIND       PRES   REMARKS
WEST PLAINS    PTCLDY    49  46  90 CALM      30.27R
POPLAR BLUFF   CLEAR     50  46  86 CALM      30.24S
CAPE GIRARDEAU CLEAR     46  45  96 CALM      30.26S FOG


...NORTHWEST ALABAMA...

CITY           SKY/WX    TMP DP  RH WIND       PRES   REMARKS
MUSCLE SHOALS  CLEAR     59  47  64 CALM      30.20S


...MIDDLE TENNESSEE...

CITY           SKY/WX    TMP DP  RH WIND       PRES   REMARKS
NASHVILLE      CLEAR     54  47  77 N3        30.24R
CLARKSVILLE    CLEAR     52  45  77 NE3       30.25S
DICKSON        CLEAR     54  45  71 NE5       30.23R
COLUMBIA       CLEAR     48  48 100 CALM      30.20S
LEWISBURG      CLEAR     45  43  93 CALM      30.22R


...WESTERN KENTUCKY...

CITY           SKY/WX    TMP DP  RH WIND       PRES   REMARKS
PADUCAH        FAIR      51  45  79 CALM      30.25R
FORT CAMPBELL  CLEAR     52  47  83 N6        30.25S


...CENTRAL ARKANSAS...

CITY           SKY/WX    TMP DP  RH WIND       PRES   REMARKS
LITTLE ROCK    CLEAR     58  50  75 NE3       30.21S


SKY/WX REPORTED AS FAIR MEANS FEW OR NO CLOUDS BELOW
12 THOUSAND FEET.



USA.gov is the U.S. government's official web portal to all federal, state and local government web resources and services.